STARLINK-30106, 56288

Orbit data source: Space-Track

STARLINK-30106, 56288 is a payload satellite owned by SpaceX/Seattle (US) in LEO that was launched on Wed, 19 Apr 2023 UTC via an FALCON 9 launch vehicle from the Air Force Eastern Test Range (AFETR). Payload-class satellites include a variety of spacecraft equipped with specific instruments for various scientific and technological missions. These include communications satellites like Starlink; space stations such as the ISS; scientific satellites like the Hubble; Earth observation satellites from companies like Planet Labs, Umbra, and HawkEye 360; GPS; miniature CubeSats for education and research; and military/defense satellites.

Loading next visibility...
Identifier
56288, 2023-056C
Orbit
LEO
Country
Flag of USUS
Related business
Manufacturer
SpaceX/Seattle
Mission
Operational Commercial Communications
Bus & Motor
STARLINK V2M, Unknown motor
Mass
730 kg wet, ~700 kg dry
Launch date (UTC)
2023-04-19 (3 years ago)
Launch vehicle
FALCON 9
Launch site
Air Force Eastern Test Range (AFETR)
Object type
Payload
Rocket body
Debris
Shape & HBR
Box + 2 Pan, 17.7 m
Radar Cross Section
33.884 m², Large (>1 m²)

Expand to show TLE details & history
Last TLE update: 1 day ago

TLE from 1 day ago
0 STARLINK-30106
1 56288U 23056C   25348.24391881  .00001746  00000-0  14437-3 0  9993
2 56288  43.0049 314.3171 0001373 276.2056  83.8630 15.02523918147177
Epoch: 2025-12-14T05:51Z
TLE epoch observation values (Epoch: 2025-12-14T05:51:14.585Z)
Latitude
-0°
Longitude
143.3467°
Altitude
558.793 km
Speed
7.584 km/s
True Right ascension
20h 57m 16s
True Declination
0° 00' 00"
Sunlit
Object was in daylight at epoch
Visualization orbit readout
Latitude
Unknown
Longitude
Unknown
Altitude
Unknown
Speed
Unknown
Apparent Right ascension
Unknown
Apparent Declination
Unknown
Sunlit
N/A
Visualization observer readout
Local Sidereal Time
15:11:33
Azimuth
Unknown
Elevation
Unknown
Doppler factor
Unknown
Orbital elements
Apogee altitude
561.993 km
Perigee altitude
560.087 km
Semi-major axis
6,939.177 km
Eccentricity
0.00014
Inclination
43.0049°
RAAN
314.3171°
Arg. of periapsis
276.2056°
True anomaly
83.87864°
Mean anomaly
83.863°
Eccentric anomaly
83.87082°
Mean motion
3.75475 °/min
Orbital period
95.88 mins
BSTAR
0.00014437
Loading maneuver chart data...
Computing Atmospheric mass density...
Loading historical data...
Loading historical data...
Loading historical data...
Loading historical data...
Loading historical data...
Loading historical data...
Loading historical data...

Documentation

Showing up to 5 results
|